#timestamp,LO_Frequency,Hit,StdDev 
1509609615.6,286047002.7,N
1509609635.4,286047004.3,N
1509609655.2,286047000.9,N
1509609675.1,286047004.3,N
1509609676.0,286047004.3,N
1509609695.8,286046998.9,N
1509609715.6,286047000.8,N
1509609735.5,286047006.0,N
1509609755.3,286047005.4,N
1509609775.1,286047004.8,N
1509609795.9,286047005.6,N
1509609815.7,286047006.0,N
1509609835.5,286047002.4,N
1509609855.4,286046998.2,N
1509609875.2,286047002.6,N
1509609895.0,286047000.1,N
1509609895.9,286047000.1,N
1509609915.8,286046998.6,N
1509609935.6,286046998.8,N
1509609955.4,286046996.7,N
1509609975.3,286046999.3,N
1509609995.1,286046999.0,N
1509610015.9,286046999.8,N
1509610035.7,286047002.2,N
1509610055.5,286047001.8,N
1509610075.3,286047001.9,N
1509610095.2,286046998.8,N
1509610115.0,286047002.8,N
1509610115.9,286047002.8,N
1509610135.8,286046998.6,N
1509610155.6,286047002.8,N
1509610175.4,286047001.3,N
1509610195.3,286047000.5,N
1509610215.1,286046998.7,N
1509610216.0,286046998.7,N
1509610235.8,286047003.9,N
1509610255.7,286047001.6,N
1509610275.5,286047001.4,N
1509610295.3,286047003.4,N
1509610315.2,286047003.7,N
1509610335.0,286047004.1,N
1509610335.9,286047004.1,N
1509610355.7,286047002.4,N
1509610375.6,286047002.6,N
1509610395.4,286047002.8,N
1509610415.3,286047005.7,N
1509610435.1,286047006.7,Y
1509610436.0,286047006.7,P
1509610455.8,286047007.5,N
1509610475.7,286047005.9,N
1509610495.5,286047005.7,N
1509610515.3,286047003.3,N
1509610535.2,286047003.5,N
1509610555.9,286047006.6,Y
1509610575.7,286047000.2,P
1509610595.6,286047000.0,N
1509610615.4,286047001.6,N
1509610635.2,286047003.9,N
1509610655.1,286047000.6,N
1509610656.0,286047000.6,N
1509610675.8,286047002.5,N
1509610695.7,286047000.7,N
1509610715.5,286047000.7,N
1509610735.3,286046999.1,N
1509610755.2,286046999.1,N
1509610775.9,286046998.2,N
1509610795.7,286047003.9,N
1509610815.6,286046999.7,N
1509610835.4,286047002.1,N
1509610855.2,286046998.4,N
1509610875.1,286046999.9,N
1509610876.0,286046999.9,N
1509610895.8,286047000.7,N
1509610915.6,286046996.7,N
1509610935.5,286046997.1,N
1509610955.3,286046997.1,N
1509610975.1,286046997.9,N
1509610995.9,286046998.2,N
1509611015.7,286047000.8,N
1509611035.5,286046995.8,N
1509611055.3,286046999.4,N
1509611075.2,286046999.2,N
1509611095.0,286046999.8,N
1509611095.9,286046999.8,N
1509611115.8,286047002.7,N
1509611135.6,286046999.5,N
1509611155.4,286047000.9,N
1509611175.3,286047005.2,N
1509611195.1,286047004.9,N
1509611196.0,286047004.9,N
1509611215.8,286047005.2,N
1509611235.7,286047008.4,Y
1509611255.5,286047012.4,P
1509611275.3,286047011.3,N
1509611295.2,286047010.8,N
1509611315.9,286047006.5,N
1509611335.7,286047005.2,N
1509611355.6,286047007.4,N
1509611375.4,286047005.7,N
1509611395.2,286047003.6,N
1509611415.1,286047003.5,N
1509611416.0,286047003.5,N
1509611435.8,286047005.2,N
1509611455.6,286047003.1,N
1509611475.5,286047001.1,N
1509611495.3,286047002.8,N
1509611515.1,286047000.4,N
1509611535.9,286047001.2,N
1509611555.7,286046998.2,N
1509611575.5,286046998.7,N
1509611595.4,286046997.9,N
1509611615.2,286046997.6,N
1509611635.0,286046997.4,N
1509611635.9,286046997.4,N
1509611655.8,286046999.5,N
1509611675.6,286046999.4,N
1509611695.4,286047000.6,N
1509611715.3,286047001.8,N
1509611735.1,286047000.3,N
1509611755.9,286047001.2,N
1509611775.7,286047001.5,N
1509611795.5,286047000.1,N
1509611815.3,286047000.9,N
1509611835.2,286046998.2,N
1509611855.0,286047000.9,N
1509611855.9,286047000.9,N
1509611875.7,286046999.7,N
1509611895.6,286046996.7,N
1509611915.4,286046998.4,N
1509611935.3,286047000.5,N
1509611955.1,286046999.5,N
1509611956.0,286046999.5,N
1509611975.8,286046998.9,N
1509611995.7,286046997.2,N
1509612015.5,286046997.1,N
1509612035.3,286046999.3,N
1509612055.2,286047001.0,N
1509612075.9,286047000.8,N
1509612095.7,286047000.0,N
1509612115.6,286047004.0,N
1509612135.4,286047005.4,Y
1509612155.2,286047005.4,P
1509612175.1,286047000.3,N
1509612176.0,286047000.3,N
1509612195.8,286047002.3,N
1509612215.6,286047002.3,N
1509612235.5,286047000.9,N
1509612255.3,286046996.4,N
1509612275.2,286046994.9,N
1509612295.9,286046995.9,N
1509612315.7,286046998.6,N
1509612335.5,286047000.0,N
1509612355.4,286046999.7,N
1509612375.2,286047006.0,N
1509612395.1,286047003.3,N
1509612396.0,286047003.3,N
1509612415.8,286047000.9,N
1509612435.6,286047000.3,N
1509612455.5,286046997.7,N
1509612475.3,286046996.7,N
1509612495.1,286047002.5,N
1509612515.9,286046998.5,N
1509612535.7,286046997.1,N
1509612555.5,286047000.6,N
1509612575.4,286047003.1,N
1509612595.2,286047001.7,N
1509612615.0,286047001.8,N
1509612615.9,286047001.8,N
1509612635.8,286046995.1,N
1509612655.6,286046993.4,N
1509612675.4,286046993.6,N
1509612695.3,286046990.8,N
1509612715.1,286046992.9,N
1509612716.0,286046992.9,N
1509612735.8,286046999.6,N
1509612755.7,286047000.1,N
1509612775.5,286047000.5,N
1509612795.3,286047000.7,N
1509612815.2,286046998.1,N
1509612835.9,286046999.0,N
1509612855.7,286046997.0,N
1509612875.6,286046998.2,N
1509612895.4,286046997.0,N
1509612915.2,286046999.1,N
1509612935.1,286046999.6,N
1509612936.0,286046999.6,N
1509612955.8,286046999.2,N
1509612975.6,286047001.8,N
1509612995.5,286047002.1,N
1509613015.3,286047000.8,N
1509613035.1,286047001.2,N
1509613055.9,286047002.1,N
1509613075.7,286047000.3,N
1509613095.5,286047000.7,N
1509613115.4,286046998.5,N
1509613135.2,286046999.7,N
1509613155.0,286046997.3,N
1509613155.9,286046997.3,N
1509613175.8,286046995.9,N
1509613195.6,286046993.6,N
